Weather History for KBVN - February, 2014

Change the Weather History Date:

Saturday, February 15, 2014

  Actual Average (KOFK) Record (KOFK)
Temperature  
Mean Temperature 40 °F 27 °F  
Max Temperature 57 °F 37 °F 68 °F (1921)
Min Temperature 23 °F 16 °F -29 °F (1900)
Degree Days  
Heating Degree Days 25 38  
Month to date heating degree days 600  
Since 1 July heating degree days 4622  
Cooling Degree Days 0 0  
Month to date cooling degree days 0  
Year to date cooling degree days 0  
Moisture  
Dew Point 23 °F    
Average Humidity 61    
Maximum Humidity 87    
Minimum Humidity 23    
Precipitation  
Precipitation 0.00 in 0.03 in 0.27 in (1984)
Month to date precipitation 0.38  
Year to date precipitation 0.97  
Snow  
Snow 0.00 in 0.20 in - ()
Month to date snowfall 3.2  
Since 1 July snowfall 20.5  
Snow Depth -    
Sea Level Pressure  
Sea Level Pressure 29.88 in    
Wind  
Wind Speed 12 mph (West)    
Max Wind Speed 33 mph    
Max Gust Speed 43 mph    
Visibility 10 miles    
Events      
T = Trace of Precipitation, MM = Missing Value Source: NWS Daily Summary

Daily Weather History Graph

Daily Weather History Graph

Search for Another Location

Airport or City:

Trip Planner

Search our weather history database for the weather conditions in past years. The results will help you decide how hot, cold, wet, or windy it might be!

Date:

Astronomy

Feb. 15, 2014 Rise Set
Actual Time 7:27 AM CST 6:05 PM CST
Civil Twilight 6:59 AM CST 6:34 PM CST
Nautical Twilight 6:26 AM CST 7:06 PM CST
Astronomical Twilight 5:54 AM CST 7:38 PM CST
Moon 7:08 PM CST (2/15) 7:25 AM CST (2/15)
Length of Visible Light 11h 35m
Length of Day
10h 38m
Waxing Gibbous, 99% of the Moon is Illuminated
Feb 15
Waxing Gibbous
Feb 22
Last Quarter
Mar 1
New
Mar 8
First Quarter
Mar 16
Full

Hourly Weather History & Observations

Time (CST) Temp. Windchill Dew Point Humidity Pressure Visibility Wind Dir Wind Speed Gust Speed Precip Events Conditions
12:15 AM 23.5 °F 13.7 °F 14.5 °F 69% 29.95 in 10.0 mi SSE 9.2 mph - N/A   Clear
12:35 AM 23.7 °F 14.0 °F 15.4 °F 71% 29.95 in 10.0 mi SSE 9.2 mph - N/A   Clear
12:55 AM 23.9 °F 15.0 °F 16.3 °F 73% 29.94 in 10.0 mi SSE 8.1 mph - N/A   Scattered Clouds
1:15 AM 24.3 °F 15.4 °F 16.9 °F 73% 29.94 in 10.0 mi South 8.1 mph - N/A   Overcast
1:35 AM 24.8 °F 14.0 °F 17.6 °F 74% 29.93 in 10.0 mi South 11.5 mph - N/A   Overcast
1:55 AM 25.2 °F 15.1 °F 17.8 °F 74% 29.92 in 10.0 mi South 10.4 mph - N/A   Overcast
2:15 AM 25.7 °F 15.7 °F 18.3 °F 74% 29.90 in 10.0 mi SSE 10.4 mph - N/A   Overcast
2:35 AM 26.1 °F 15.6 °F 18.5 °F 73% 29.90 in 10.0 mi South 11.5 mph - N/A   Overcast
2:55 AM 26.1 °F 16.8 °F 19.0 °F 75% 29.88 in 10.0 mi SSE 9.2 mph - N/A   Overcast
3:15 AM 26.6 °F 18.2 °F 19.6 °F 75% 29.87 in 10.0 mi SSE 8.1 mph - N/A   Overcast
3:35 AM 27.0 °F 17.3 °F 20.3 °F 76% 29.85 in 10.0 mi SSE 10.4 mph - N/A   Overcast
3:55 AM 27.1 °F 16.9 °F 20.7 °F 77% 29.82 in 10.0 mi SSE 11.5 mph - N/A   Overcast
4:15 AM 27.5 °F 16.3 °F 21.0 °F 77% 29.80 in 10.0 mi SSE 13.8 mph - N/A   Overcast
4:35 AM 27.5 °F 16.8 °F 21.2 °F 77% 29.80 in 10.0 mi South 12.7 mph - N/A   Overcast
4:55 AM 27.5 °F 17.4 °F 21.6 °F 78% 29.79 in 10.0 mi South 11.5 mph - N/A   Overcast
5:15 AM 27.9 °F 17.8 °F 21.9 °F 78% 29.79 in 10.0 mi South 11.5 mph - N/A   Overcast
5:35 AM 28.4 °F 17.0 °F 22.1 °F 77% 29.77 in 10.0 mi South 15.0 mph 21.9 mph N/A   Overcast
5:55 AM 29.1 °F 19.4 °F 22.5 °F 76% 29.77 in 10.0 mi South 11.5 mph - N/A   Overcast
6:15 AM 29.3 °F 23.2 °F 22.8 °F 77% 29.78 in 10.0 mi South 5.8 mph 18.4 mph N/A   Overcast
6:35 AM 29.8 °F 18.9 °F 23.0 °F 76% 29.77 in 10.0 mi South 15.0 mph - N/A   Overcast
6:55 AM 30.0 °F 21.7 °F 23.4 °F 76% 29.77 in 10.0 mi South 9.2 mph 12.7 mph N/A   Overcast
7:15 AM 30.2 °F 22.6 °F 23.5 °F 76% 29.79 in 10.0 mi South 8.1 mph - N/A   Overcast
7:35 AM 30.7 °F 23.3 °F 23.9 °F 76% 29.80 in 10.0 mi SSW 8.1 mph - N/A   Overcast
7:55 AM 30.9 °F 24.3 °F 23.9 °F 75% 29.81 in 10.0 mi SSW 6.9 mph - N/A   Overcast
8:15 AM 31.1 °F 24.5 °F 24.4 °F 76% 29.81 in 10.0 mi South 6.9 mph - N/A   Overcast
8:35 AM 31.8 °F 27.3 °F 25.5 °F 78% 29.81 in 10.0 mi South 4.6 mph - N/A   Overcast
8:55 AM 32.0 °F 25.6 °F 26.2 °F 79% 29.80 in 10.0 mi South 6.9 mph - N/A   Overcast
9:15 AM 32.5 °F 27.1 °F 27.1 °F 80% 29.79 in 10.0 mi SSW 5.8 mph - N/A   Mostly Cloudy
9:35 AM 33.6 °F 27.5 °F 28.0 °F 80% 29.78 in 10.0 mi SSW 6.9 mph - N/A   Mostly Cloudy
9:55 AM 36.3 °F 29.5 °F 28.6 °F 74% 29.79 in 10.0 mi SW 9.2 mph - N/A   Mostly Cloudy
10:15 AM 38.5 °F 32.1 °F 28.9 °F 69% 29.79 in 10.0 mi WSW 9.2 mph - N/A   Mostly Cloudy
10:35 AM 40.3 °F 34.9 °F 29.3 °F 65% 29.79 in 10.0 mi WSW 8.1 mph - N/A   Mostly Cloudy
10:55 AM 43.0 °F 38.2 °F 29.5 °F 59% 29.80 in 10.0 mi West 8.1 mph - N/A   Scattered Clouds
11:15 AM 46.4 °F 43.5 °F 30.4 °F 54% 29.79 in 10.0 mi West 5.8 mph - N/A   Clear
11:35 AM 50.9 °F - 30.2 °F 45% 29.78 in 10.0 mi West 10.4 mph 17.3 mph N/A   Clear
11:55 AM 55.0 °F - 27.3 °F 34% 29.78 in 10.0 mi NW 19.6 mph 25.3 mph N/A   Clear
12:15 PM 55.2 °F - 25.2 °F 31% 29.77 in 10.0 mi NW 25.3 mph 31.1 mph N/A   Clear
12:35 PM 55.8 °F - 23.4 °F 29% 29.77 in 10.0 mi NW 33.4 mph 36.8 mph N/A   Clear
12:55 PM 56.8 °F - 23.0 °F 27% 29.77 in 10.0 mi NW 27.6 mph 34.5 mph N/A   Clear
1:15 PM 55.6 °F - 21.7 °F 27% 29.77 in 10.0 mi NW 33.4 mph 42.6 mph N/A   Clear
1:35 PM 56.5 °F - 21.4 °F 26% 29.78 in 10.0 mi NW 23.0 mph 35.7 mph N/A   Clear
1:55 PM 57.0 °F - 21.2 °F 25% 29.78 in 10.0 mi WNW 28.8 mph 38.0 mph N/A   Scattered Clouds
2:15 PM 56.3 °F - 20.7 °F 25% 29.79 in 10.0 mi NW 25.3 mph 40.3 mph N/A   Scattered Clouds
2:35 PM 56.5 °F - 18.9 °F 23% 29.80 in 10.0 mi NW 29.9 mph 40.3 mph N/A   Scattered Clouds
2:55 PM 56.3 °F - 18.9 °F 23% 29.80 in 10.0 mi NW 29.9 mph 36.8 mph N/A   Scattered Clouds
3:15 PM 55.9 °F - 18.5 °F 23% 29.82 in 10.0 mi NW 31.1 mph 38.0 mph N/A   Scattered Clouds
3:35 PM 55.4 °F - 19.4 °F 25% 29.82 in 10.0 mi NW 33.4 mph 39.1 mph N/A   Clear
3:55 PM 54.5 °F - 19.4 °F 25% 29.84 in 10.0 mi NW 31.1 mph 42.6 mph N/A   Clear
4:15 PM 53.6 °F - 19.0 °F 26% 29.86 in 10.0 mi NW 26.5 mph 42.6 mph N/A   Clear
4:35 PM 52.7 °F - 19.9 °F 28% 29.88 in 10.0 mi NW 27.6 mph 41.4 mph N/A   Clear
4:55 PM 51.8 °F - 22.1 °F 31% 29.89 in 10.0 mi NW 19.6 mph 31.1 mph N/A   Clear
5:15 PM 50.4 °F - 22.1 °F 33% 29.91 in 10.0 mi NW 25.3 mph 35.7 mph N/A   Clear
5:35 PM 49.3 °F - 23.7 °F 37% 29.92 in 10.0 mi NNW 16.1 mph 29.9 mph N/A   Clear
5:55 PM 47.3 °F - 25.2 °F 42% 29.93 in 10.0 mi North 12.7 mph 18.4 mph N/A   Clear
6:15 PM 45.5 °F 39.6 °F 25.7 °F 46% 29.95 in 10.0 mi North 12.7 mph - N/A   Clear
6:35 PM 44.4 °F 37.9 °F 26.1 °F 49% 29.96 in 10.0 mi North 13.8 mph 21.9 mph N/A   Clear
6:55 PM 43.5 °F 37.1 °F 26.2 °F 51% 29.97 in 10.0 mi NNW 12.7 mph - N/A   Clear
7:15 PM 41.4 °F 34.7 °F 26.1 °F 55% 29.99 in 10.0 mi North 11.5 mph - N/A   Clear
7:35 PM 40.1 °F 33.2 °F 26.4 °F 58% 30.00 in 10.0 mi North 11.5 mph 18.4 mph N/A   Clear
7:55 PM 39.4 °F 32.7 °F 27.1 °F 62% 30.01 in 10.0 mi North 10.4 mph - N/A   Clear
8:15 PM 37.9 °F 30.5 °F 27.3 °F 66% 30.01 in 10.0 mi North 11.5 mph 17.3 mph N/A   Clear
8:35 PM 36.9 °F 29.6 °F 27.5 °F 69% 30.01 in 10.0 mi NNW 10.4 mph 18.4 mph N/A   Clear
8:55 PM 35.6 °F 27.1 °F 27.5 °F 72% 30.02 in 10.0 mi North 12.7 mph 16.1 mph N/A   Clear
9:15 PM 34.7 °F 26.9 °F 27.5 °F 75% 30.03 in 10.0 mi North 10.4 mph 17.3 mph N/A   Clear
9:35 PM 33.6 °F 26.2 °F 27.3 °F 78% 30.03 in 10.0 mi North 9.2 mph - N/A   Clear
9:55 PM 32.0 °F 25.6 °F 26.6 °F 80% 30.04 in 10.0 mi NNW 6.9 mph - N/A   Clear
10:15 PM 32.0 °F 26.4 °F 26.2 °F 79% 30.05 in 10.0 mi North 5.8 mph - N/A   Clear
10:35 PM 29.8 °F - 25.2 °F 83% 30.06 in 10.0 mi Calm Calm - N/A   Clear
10:55 PM 28.9 °F 23.9 °F 24.1 °F 82% 30.06 in 10.0 mi North 4.6 mph - N/A   Clear
11:15 PM 26.1 °F 19.4 °F 22.6 °F 87% 30.04 in 10.0 mi North 5.8 mph - N/A   Clear
11:35 PM 27.5 °F - 23.5 °F 85% 30.05 in 10.0 mi Calm Calm - N/A   Clear
11:55 PM 24.1 °F 17.0 °F 20.8 °F 87% 30.05 in 7.0 mi NNW 5.8 mph - N/A   Clear